Wind_Speed
13 13 13 13 13 14 14 14 14 14 14 14 14 14 14 14 13 13 13 14 15 15 15 14 13 11 10 10 10 11 10 9 9 5 6 12 14 14 18 22 22 23 22 21 23 24 25 26 26 25 23 21 18 15 15 15 12 10 8 7 7 6 6 6 6 6 4 3 2 5 9 8 9 10 12 12 12 12 12 13 13 13 13 13 15 17 18 18
13 13 13 13 14 14 14 15 15 15 14 14 14 14 14 14 13 13 13 13 14 14 14 15 14 12 11 11 10 10 10 10 8 7 12 15 12 11 16 21 22 23 22 20 20 20 22 23 24 25 24 21 18 16 16 15 13 11 9 7 7 7 7 7 7 5 3 4 4 5 9 8 8 8 10 11 11 12 12 13 13 15 15 15 16 17 18 20
14 14 14 14 15 15 15 15 15 15 15 15 14 14 14 14 14 14 13 13 14 14 14 14 15 14 13 12 10 10 9 10 9 10 15 14 11 10 13 18 21 21 20 18 16 16 17 19 21 23 23 22 20 19 18 17 14 12 10 8 8 8 8 6 6 5 3 5 6 7 9 9 9 8 8 9 10 9 8 8 10 13 14 15 18 17 18 22
15 15 15 16 16 17 17 16 16 16 15 15 15 15 14 14 14 14 14 13 14 13 13 13 14 14 14 13 11 10 9 10 10 11 15 14 11 11 12 16 18 20 21 20 20 19 19 20 22 23 24 24 22 22 22 19 15 13 11 9 9 10 9 7 7 6 5 6 7 7 8 9 9 9 9 8 7 6 6 6 5 9 11 13 17 16 16 21
17 17 17 17 17 18 18 17 17 17 16 16 16 16 15 15 15 15 15 15 14 14 14 13 13 14 14 13 11 10 9 10 11 11 13 14 13 12 13 14 15 20 23 23 23 23 24 25 25 25 26 27 26 26 24 20 17 15 11 10 12 12 10 9 8 6 7 9 8 7 6 7 8 8 9 7 5 5 8 6 3 9 11 10 13 14 15 18
18 19 18 18 18 19 19 18 18 18 17 17 17 17 16 16 16 16 15 16 15 15 15 14 13 13 13 14 12 12 10 10 11 10 11 13 14 14 14 14 14 20 24 24 24 25 26 27 28 29 30 30 29 28 24 21 19 15 12 14 15 14 11 10 9 7 9 10 9 7 5 7 7 7 9 9 8 7 11 8 3 8 11 10 11 12 13 17
19 19 20 19 19 19 19 19 19 19 19 19 19 19 18 17 17 17 16 16 16 16 16 15 14 13 13 13 13 12 11 13 12 9 10 12 13 15 14 14 16 20 25 26 26 25 26 28 29 30 30 31 30 27 24 22 21 16 13 17 17 14 13 12 10 10 10 10 10 9 8 7 4 3 6 8 8 7 9 9 5 7 10 11 12 11 11 15
19 19 19 19 19 19 19 19 19 19 19 20 20 20 20 19 19 18 17 17 17 17 16 16 15 14 13 12 13 13 11 15 14 10 13 13 13 15 14 14 17 20 24 26 25 23 23 25 27 29 30 31 29 26 24 22 22 18 14 17 18 15 14 14 12 11 11 11 10 9 9 6 3 3 5 6 7 8 9 8 7 8 10 11 12 12 12 15
19 19 19 19 19 19 18 19 19 19 19 19 20 20 20 20 20 19 19 19 18 18 17 16 16 14 14 13 13 13 13 16 15 13 15 15 15 16 13 13 16 19 22 25 25 24 23 23 23 25 27 28 26 25 25 24 23 19 14 17 19 16 16 16 14 13 12 12 11 10 9 7 5 5 7 7 7 8 8 7 8 9 10 11 11 12 13 15
19 19 19 19 18 18 18 18 18 18 18 19 19 19 20 20 20 20 20 20 20 19 19 18 17 15 14 14 13 12 13 17 17 16 16 18 19 18 16 13 14 18 22 24 26 26 23 18 17 20 22 24 25 25 26 26 23 19 15 18 20 18 18 19 18 16 14 14 13 12 10 8 8 8 9 9 8 8 8 8 7 8 9 10 11 13 14 16
19 19 19 18 18 17 17 17 17 18 18 19 19 19 19 20 20 20 20 20 21 20 20 19 18 16 15 14 14 13 14 17 19 19 19 19 20 20 19 16 14 16 20 23 25 23 19 17 15 17 20 22 25 26 28 28 23 19 17 20 22 21 20 21 20 17 15 14 13 11 9 10 13 12 10 10 8 7 8 9 7 8 10 11 12 14 16 18
19 20 19 18 18 17 17 17 17 18 18 19 19 19 19 20 20 20 20 20 21 20 20 20 19 18 15 14 15 15 14 16 20 21 20 20 20 21 20 18 16 17 20 21 21 21 19 19 17 16 18 20 23 25 27 28 25 21 20 21 23 22 22 23 22 18 17 15 12 9 9 14 16 11 10 10 9 8 8 10 9 8 10 11 13 16 18 19
20 20 20 19 18 18 18 17 18 18 18 19 20 20 20 20 20 20 20 20 20 20 20 20 20 18 16 15 15 15 13 15 20 21 20 20 21 21 20 20 19 20 22 21 20 20 20 19 18 17 18 18 21 22 23 25 26 24 22 22 23 23 24 24 21 19 18 15 12 9 10 16 14 11 11 11 10 10 10 11 11 10 11 12 14 17 18 20
21 21 21 21 20 19 19 19 19 19 20 21 21 21 22 21 20 19 19 20 19 19 20 20 19 17 17 17 15 14 14 15 19 21 21 21 22 21 21 21 21 22 24 23 22 21 20 20 19 19 20 19 20 22 21 21 25 28 25 24 25 24 26 25 21 20 19 16 12 10 13 15 13 11 13 12 11 11 10 11 12 12 12 12 13 16 19 20
21 22 22 22 21 21 20 20 20 20 21 22 22 21 22 22 20 19 19 19 18 18 17 18 17 16 16 18 16 14 14 16 19 21 23 22 22 22 22 22 21 23 25 25 24 23 22 22 22 23 22 21 21 21 22 20 23 29 25 23 28 28 27 27 23 22 20 17 14 12 14 14 14 15 14 13 12 11 11 11 12 12 13 13 13 15 18 20
22 22 23 23 22 22 22 21 21 21 22 22 22 22 22 22 20 18 18 18 17 16 16 16 14 14 14 15 15 13 14 17 18 21 23 24 24 24 24 23 23 25 27 27 25 25 25 24 24 24 22 23 23 22 21 20 21 28 27 23 29 31 28 26 26 25 21 19 17 16 16 13 12 14 15 14 12 11 12 12 12 12 12 13 13 14 16 20
24 24 24 25 24 24 24 24 23 23 22 22 22 22 22 22 20 17 17 17 15 15 15 14 12 12 11 12 12 11 12 16 18 20 23 25 25 24 24 24 26 28 29 29 28 27 27 27 26 25 25 25 26 24 20 19 22 26 30 29 29 30 29 27 25 24 24 22 20 19 21 18 13 12 14 14 13 12 13 13 12 13 12 13 14 14 16 19
25 25 26 26 26 25 26 25 24 24 23 22 23 23 22 21 18 16 15 15 14 14 13 11 12 11 9 11 12 11 11 15 19 21 23 25 25 25 24 23 25 29 30 30 30 30 30 29 29 28 29 28 29 30 24 22 27 29 31 32 30 28 30 30 23 20 25 23 20 20 22 22 17 15 16 15 15 14 14 13 13 13 13 13 14 15 15 17
25 25 26 27 26 26 26 26 25 25 24 23 23 22 21 20 17 13 12 13 13 12 11 12 13 10 10 14 15 14 12 13 17 21 24 25 25 26 25 23 25 29 31 31 31 32 32 32 33 33 35 35 34 36 32 28 30 31 31 31 31 29 29 32 26 19 21 21 19 22 23 22 19 18 19 18 18 16 15 16 16 15 15 15 15 16 15 16
24 24 25 26 26 25 25 25 24 24 24 23 22 21 19 16 14 10 8 11 12 11 12 13 13 11 12 14 15 16 13 11 13 19 24 25 25 26 25 25 26 30 32 32 33 33 33 34 39 41 41 39 36 35 34 33 29 26 26 27 29 31 29 31 29 21 19 18 17 20 22 22 20 18 19 19 19 20 20 20 19 17 17 17 16 16 15 14
24 24 24 25 26 25 25 24 23 23 22 21 20 19 18 16 15 12 9 11 12 12 12 13 13 13 13 14 16 16 13 10 10 16 24 27 26 26 27 26 28 33 34 32 32 33 33 37 42 43 41 38 34 32 32 33 30 22 21 24 25 29 32 31 29 25 21 19 18 20 22 22 22 20 18 20 22 23 23 22 20 18 17 17 17 16 15 14
25 24 25 25 26 25 25 23 21 21 20 20 19 18 17 16 15 16 15 13 13 13 12 12 12 13 13 14 15 15 13 9 10 16 23 27 27 26 28 29 29 33 36 34 33 33 36 40 42 40 37 34 31 30 30 32 33 26 20 23 23 26 32 31 29 27 22 19 18 20 22 22 21 21 20 21 22 22 22 22 20 18 18 17 15 14 15 16
26 26 25 25 25 25 24 22 20 19 18 18 17 16 16 16 15 16 16 15 13 13 12 10 10 11 12 12 12 12 11 8 10 16 20 26 28 25 27 30 29 31 36 38 39 38 37 40 43 40 35 33 32 31 30 30 35 34 26 23 23 24 25 23 24 26 23 20 20 21 23 24 22 21 23 22 21 23 23 23 23 22 21 18 15 14 14 15
27 27 27 25 25 24 23 21 19 17 17 17 16 15 14 14 15 15 16 15 13 12 11 9 9 10 11 11 10 8 7 6 10 16 19 23 27 27 27 29 30 31 36 39 40 41 39 38 39 38 36 34 33 32 32 31 33 38 36 30 25 25 24 21 20 22 20 19 22 22 20 24 26 23 24 24 22 24 26 27 27 27 27 24 21 19 16 15
27 28 28 26 24 24 24 21 18 17 17 16 16 14 12 12 13 13 14 13 10 9 9 9 9 9 9 10 9 7 6 8 10 15 19 21 26 29 27 28 30 32 35 37 39 41 41 38 32 28 34 38 36 35 36 34 31 33 40 39 30 26 24 23 22 17 14 13 17 20 14 19 28 29 27 26 24 25 26 27 28 28 28 26 24 22 19 17
28 28 28 26 24 23 23 20 18 18 16 15 15 13 11 11 11 10 12 11 6 6 8 8 8 8 8 7 7 7 6 8 10 14 17 18 23 27 27 28 30 32 34 34 36 39 41 42 33 19 21 32 38 39 38 36 30 27 36 41 35 28 23 22 21 15 12 10 11 14 12 13 21 28 28 27 28 27 25 26 26 27 27 25 24 23 21 19
29 28 28 26 24 22 21 19 18 17 15 14 13 11 9 9 9 9 10 7 4 4 6 6 7 8 9 9 8 7 5 6 8 11 14 15 18 24 27 28 29 31 33 31 31 36 40 42 39 27 16 19 32 41 40 38 31 26 33 38 35 33 29 24 20 16 15 15 13 13 13 12 18 27 28 25 27 27 26 27 26 26 26 23 23 22 21 20
29 29 28 26 24 22 21 19 18 16 15 15 13 10 8 7 7 7 5 3 4 5 6 7 8 9 9 9 8 7 7 8 7 7 10 13 15 19 24 27 28 29 32 33 29 31 39 41 40 38 27 21 26 32 36 39 34 28 29 32 34 33 30 26 22 19 17 18 19 18 16 11 16 29 31 25 26 26 27 29 28 26 25 23 23 21 20 20
29 29 28 25 23 21 21 20 19 16 15 14 13 9 7 6 5 4 2 2 5 6 6 7 8 10 9 8 8 7 10 12 11 10 10 10 12 14 20 24 26 27 28 34 31 26 33 36 35 38 38 35 28 22 27 33 36 32 24 22 27 27 23 21 20 20 18 17 21 23 20 13 14 26 31 27 28 29 29 31 30 28 26 24 23 21 20 21
29 29 28 26 23 21 19 20 20 18 14 13 12 9 7 5 3 3 3 3 4 5 7 9 9 11 12 10 7 6 10 12 13 14 11 8 8 12 18 21 25 26 24 28 30 30 32 28 25 30 37 41 33 20 18 24 32 33 21 13 16 21 22 19 19 19 15 15 23 27 23 16 14 22 30 34 35 33 32 32 30 29 28 26 25 23 22 21
29 30 29 26 23 21 17 16 18 17 13 11 10 8 5 3 3 3 2 4 6 7 8 10 10 12 14 12 9 8 9 11 13 13 9 6 8 11 15 18 23 26 24 24 25 30 34 28 22 24 27 32 32 22 14 16 26 28 21 16 12 14 19 19 19 20 14 11 19 28 25 19 19 23 28 36 39 36 34 33 31 30 29 28 26 24 22 20
29 29 28 26 23 21 17 14 14 14 12 9 8 7 4 3 4 5 4 4 4 6 7 9 12 14 16 15 12 10 8 8 9 10 7 4 7 10 15 17 21 23 22 24 23 24 31 32 28 22 18 22 28 25 17 16 25 26 22 22 16 10 12 13 13 14 15 11 12 21 22 20 27 32 32 37 38 37 37 35 33 31 29 28 26 25 23 21
29 28 27 25 22 20 18 16 14 13 11 7 5 6 3 3 4 6 6 4 2 5 7 10 12 15 16 15 11 8 7 7 5 4 4 2 4 7 13 15 19 22 18 19 22 20 22 26 30 25 18 20 26 27 24 21 25 27 26 27 21 11 7 9 9 9 13 12 11 18 19 17 24 32 40 47 43 38 38 35 34 34 31 30 28 25 23 22
28 27 26 25 22 19 17 17 16 14 10 6 3 4 4 4 4 5 5 5 4 5 7 9 11 13 14 12 9 7 5 6 5 2 1 2 4 5 8 9 14 20 19 16 19 22 18 15 23 30 24 22 26 27 26 24 25 27 27 27 26 20 12 9 7 8 9 7 10 19 18 11 13 21 35 47 47 42 40 37 36 35 34 32 29 26 23 23
27 26 24 23 21 19 17 16 16 14 11 6 2 6 6 5 5 4 3 4 4 4 6 9 10 10 11 9 8 8 7 7 7 4 1 2 4 4 5 6 7 13 17 14 13 21 24 15 17 28 29 25 26 26 26 26 27 27 27 28 28 27 21 12 7 9 10 8 9 18 18 12 12 18 27 35 42 44 42 40 38 36 36 35 31 28 24 22
26 24 22 21 20 20 19 16 14 13 11 6 3 6 7 7 6 4 2 2 2 4 5 7 8 8 8 8 9 10 9 7 7 5 2 1 2 1 2 4 3 5 11 13 10 13 19 17 16 24 30 29 26 26 27 27 24 23 28 31 27 26 25 18 11 9 11 10 8 16 23 20 17 25 31 31 33 37 39 41 40 38 37 36 33 29 25 21
23 22 20 19 17 18 19 16 13 12 9 6 4 6 8 8 6 5 3 3 3 4 5 5 6 6 5 7 9 10 11 8 7 6 2 1 2 2 1 3 3 1 4 9 10 9 11 13 16 22 28 31 30 27 28 29 24 20 25 29 25 22 24 22 13 8 10 9 6 13 23 23 17 20 28 31 33 36 38 38 39 40 39 36 34 30 25 21
23 21 20 18 16 16 17 14 12 9 7 6 6 7 8 8 7 5 4 3 4 5 5 4 4 4 4 5 7 10 12 9 7 6 2 2 3 3 1 3 3 2 1 3 4 6 9 10 15 23 26 29 33 31 27 28 29 23 20 22 24 21 21 22 16 9 9 9 6 10 18 21 22 20 18 23 30 35 37 38 38 40 40 37 33 29 25 22
23 21 19 17 16 16 14 12 11 7 4 5 6 8 9 8 7 5 4 4 4 5 5 4 3 4 4 5 7 9 10 8 8 7 3 3 4 4 3 1 2 1 2 1 2 3 5 7 10 19 25 25 29 33 27 23 28 29 23 21 24 22 20 24 22 14 9 8 6 8 13 17 24 26 21 19 24 28 31 34 38 39 39 37 34 30 27 24
22 19 18 17 17 15 14 13 11 7 2 5 8 9 9 9 6 4 4 5 5 6 5 5 4 4 5 7 8 8 8 8 8 6 4 5 5 5 5 4 3 2 2 2 3 4 4 7 8 13 22 22 22 29 29 21 22 27 25 21 23 23 20 21 24 23 17 9 5 7 10 12 18 25 26 24 24 26 26 29 34 38 38 36 33 30 28 25
20 18 17 17 17 15 14 14 11 6 2 4 7 9 9 8 6 4 3 4 5 6 5 5 5 6 7 8 8 7 7 7 7 5 4 4 5 4 5 5 5 4 4 3 2 3 3 6 9 12 18 18 17 24 31 27 21 23 23 21 22 23 20 16 18 25 26 17 9 7 9 12 13 17 20 20 21 22 23 25 31 35 37 37 34 29 26 25
19 17 16 16 16 14 13 14 12 7 2 3 6 7 8 8 7 6 4 4 4 5 6 6 7 7 8 8 7 7 6 5 6 6 4 4 4 5 6 7 7 5 4 3 3 3 3 5 9 14 18 20 18 18 25 28 23 20 21 24 24 23 22 17 11 15 23 24 19 14 14 16 16 15 13 12 15 19 19 22 27 31 35 36 35 31 26 24
20 18 16 16 15 12 12 13 11 7 3 3 6 7 8 8 9 8 8 7 7 7 8 8 8 7 7 7 7 6 5 5 6 5 5 7 7 7 8 8 7 6 5 4 4 4 3 4 6 11 16 21 19 15 20 25 23 19 19 23 26 23 22 21 12 7 12 20 21 15 13 15 20 24 21 15 13 16 19 20 21 26 31 33 34 32 28 24
20 17 15 15 14 12 12 14 10 6 2 4 6 7 8 9 10 10 10 11 10 10 10 9 9 8 6 6 7 7 6 5 5 5 8 10 10 9 10 10 7 6 5 4 5 4 3 4 3 5 9 14 15 14 15 19 21 20 18 21 23 21 21 23 18 10 8 14 20 17 12 14 20 26 26 20 18 17 18 20 20 20 24 28 30 31 30 27
20 16 15 16 14 11 14 16 12 7 3 3 4 6 8 9 10 10 10 10 10 10 10 9 9 8 7 7 7 7 8 7 6 8 10 12 12 12 12 10 8 6 5 5 6 5 6 7 6 5 6 7 7 7 8 12 16 15 14 18 19 17 19 18 15 13 9 10 19 20 14 16 21 22 19 18 20 19 15 16 20 20 20 23 24 25 27 28
19 17 16 17 15 12 14 17 14 9 5 3 2 3 4 5 7 8 8 9 9 10 10 10 9 9 8 8 8 8 9 10 10 10 12 13 13 13 13 12 9 7 5 6 6 6 8 10 10 10 12 10 6 5 5 10 14 13 11 14 14 13 15 14 11 12 10 9 16 19 17 17 18 15 13 13 16 18 15 13 17 20 21 22 23 24 25 26
20 17 18 18 15 14 15 16 13 9 6 5 3 2 2 3 4 5 5 7 9 10 10 10 11 11 10 11 11 11 11 12 12 12 13 15 14 13 14 13 12 10 6 5 6 6 8 11 11 13 17 17 15 14 11 10 13 14 14 15 13 10 10 12 14 14 14 13 11 13 21 24 17 11 10 9 11 15 16 16 17 19 21 22 23 26 27 27
19 18 18 19 17 17 16 14 10 7 6 6 4 3 3 3 4 5 4 5 8 9 9 9 10 11 12 13 13 12 12 12 13 14 14 15 15 15 15 13 12 11 7 5 6 6 8 10 10 13 17 19 19 18 15 12 13 15 17 17 16 12 10 12 15 17 19 19 12 14 26 28 21 19 19 16 15 16 19 21 21 20 21 21 21 23 26 27
19 18 19 20 19 18 16 13 9 6 6 6 4 4 5 5 5 6 5 4 6 8 8 9 10 11 12 13 13 13 13 12 13 14 14 15 16 16 16 15 12 11 9 6 6 6 7 7 8 11 16 20 20 19 15 13 14 17 19 19 18 17 14 13 14 16 19 21 19 24 32 30 25 26 26 24 24 23 24 25 24 23 23 23 22 21 23 26
19 19 19 20 20 18 15 12 8 7 6 5 4 5 6 5 5 6 6 6 6 7 8 9 10 11 12 13 13 13 13 13 14 15 15 16 17 16 16 15 12 12 12 9 8 7 6 7 8 10 14 18 20 18 15 13 15 18 21 20 18 18 16 14 14 15 17 19 20 27 33 33 32 32 30 29 28 27 26 26 26 27 26 25 24 22 21 24
19 19 18 18 17 16 13 11 8 7 6 5 4 5 6 7 7 6 7 7 6 7 8 8 9 10 10 11 12 11 12 13 15 16 16 17 18 18 17 17 15 15 16 14 11 9 8 10 11 10 12 15 15 14 13 12 14 18 22 22 19 16 16 15 13 12 14 16 19 25 29 30 33 36 35 33 32 31 31 29 28 29 28 27 26 24 21 22
19 17 17 16 15 13 12 9 7 6 6 6 6 6 6 8 7 6 5 5 5 8 9 8 9 9 8 8 9 10 12 14 15 15 16 18 19 20 20 20 19 20 20 19 17 14 11 11 10 9 10 11 12 11 10 9 9 14 22 25 21 17 17 15 11 8 12 15 18 24 29 29 32 36 35 33 33 34 34 34 33 32 30 29 27 24 20 20
Wind_Direction
346 345 345 346 345 345 344 342 340 340 339 337 335 332 329 325 320 313 307 301 297 296 295 294 292 290 288 283 279 276 277 275 271 265 244 240 235 221 217 217 214 219 220 216 215 211 209 208 205 205 206 204 202 203 205 206 205 205 212 209 181 146 138 140 139 130 116 112 113 180 182 176 183 178 167 165 170 173 177 186 190 180 165 166 180 189 192 192
346 345 345 344 343 343 342 342 340 341 342 340 339 336 333 330 326 320 315 308 300 296 292 289 287 286 283 281 278 275 273 272 268 246 239 244 246 236 226 225 219 219 222 220 221 219 215 215 211 207 207 207 204 206 210 214 213 206 210 197 164 140 138 139 141 138 123 123 123 174 185 179 184 181 172 177 179 175 178 184 183 177 167 164 176 183 185 190
342 341 340 339 339 338 338 339 338 340 342 341 340 338 336 333 329 326 323 316 307 301 294 288 285 283 280 277 276 275 272 268 263 246 245 250 248 241 231 230 226 222 221 216 218 222 221 222 220 215 212 208 206 210 212 216 217 210 208 190 160 151 146 145 154 149 140 139 135 159 178 183 187 181 174 184 187 184 178 174 174 177 176 170 175 179 177 183
339 337 337 337 336 335 335 335 334 336 339 339 338 337 338 335 332 328 327 322 314 307 300 292 285 280 276 274 272 270 268 264 259 247 248 249 241 234 229 228 224 222 218 210 206 205 209 214 215 216 216 212 208 211 214 214 214 211 206 185 165 162 158 163 164 147 146 147 141 153 171 182 181 175 177 185 190 189 162 137 158 181 187 183 179 177 171 178
335 335 336 336 335 333 332 332 331 332 334 334 333 333 336 335 332 330 329 325 320 313 306 299 289 281 274 270 267 263 262 262 255 245 248 251 244 233 230 229 219 218 218 213 209 202 203 206 206 208 211 214 211 211 213 212 213 212 198 181 172 166 164 171 167 153 155 153 148 147 158 179 175 164 160 152 132 154 160 135 127 175 183 194 191 183 172 179
332 331 332 335 335 334 332 329 328 329 330 329 326 327 331 332 331 330 329 325 322 317 311 305 296 287 276 269 263 256 252 255 250 242 246 248 248 241 233 230 218 216 217 215 214 209 207 205 204 205 207 211 213 213 213 211 214 210 191 184 179 170 170 174 173 170 163 157 152 144 159 180 173 157 144 131 115 130 163 159 137 167 172 183 194 193 178 180
331 330 330 333 335 335 333 330 328 328 328 326 322 322 324 327 327 327 327 325 323 318 314 309 304 297 284 270 260 253 245 248 246 238 243 242 243 243 236 228 219 215 216 216 215 214 214 210 207 206 206 210 213 213 214 215 217 211 193 188 183 178 178 178 179 178 173 166 157 157 170 172 153 160 155 146 145 138 154 166 162 163 171 179 186 194 187 182
333 332 332 333 334 335 333 330 329 329 328 326 322 321 321 321 322 324 325 324 322 319 316 311 308 304 292 278 263 252 238 242 244 234 237 239 234 236 233 226 222 218 216 218 219 220 222 220 217 212 209 211 212 212 213 218 222 215 197 190 188 186 185 185 185 185 182 177 174 173 172 169 173 202 170 160 174 159 153 167 167 166 175 182 182 185 187 187
336 335 334 335 335 335 333 329 329 330 330 327 324 324 323 320 319 321 321 321 320 319 317 313 309 306 299 286 268 255 238 237 240 231 230 233 229 229 226 221 223 222 217 215 217 220 222 223 224 222 219 216 212 212 213 217 221 215 200 195 192 188 190 190 190 191 189 187 189 189 190 194 203 211 187 179 191 177 170 176 169 167 173 182 185 181 182 186
336 336 336 336 336 336 335 332 331 332 331 328 327 330 327 323 321 321 319 317 315 314 315 314 309 305 300 291 276 261 241 233 234 230 226 227 228 227 224 220 222 222 219 215 215 218 220 221 227 229 228 224 218 214 215 216 218 214 203 198 193 191 194 194 192 191 192 195 195 199 205 209 220 226 204 190 195 183 183 191 178 167 166 178 185 182 179 181
334 334 335 336 336 336 335 333 333 332 331 329 329 332 329 325 326 323 320 315 312 311 311 311 308 303 299 293 281 264 243 232 231 227 223 224 227 229 226 223 222 220 219 216 216 217 220 220 219 222 225 225 221 217 218 217 214 213 208 199 197 199 200 197 194 191 195 198 198 209 216 222 229 221 198 193 200 187 184 194 189 172 164 174 182 183 180 178
331 330 331 333 332 333 333 333 333 332 332 330 332 334 329 327 327 324 320 314 310 309 308 307 305 302 297 290 281 270 249 235 232 228 225 224 226 228 225 221 218 214 214 215 216 214 217 218 213 215 221 223 220 218 222 219 213 213 211 204 202 206 207 201 195 193 199 198 198 214 224 227 217 187 179 197 203 198 192 195 197 184 172 174 180 184 183 179
329 327 328 329 328 329 328 329 329 328 328 328 331 333 331 330 327 324 319 312 309 309 307 304 302 301 296 290 283 275 257 238 233 229 225 223 224 225 220 216 214 209 204 204 209 211 215 217 211 212 218 222 220 218 223 220 214 213 212 209 207 212 213 205 199 199 203 199 197 215 234 228 201 166 188 205 205 206 198 192 195 192 183 181 183 186 186 184
327 325 325 325 325 325 324 324 324 324 324 323 325 327 329 332 329 325 318 312 310 309 307 305 304 302 296 291 283 273 260 242 232 227 224 222 223 221 215 210 210 208 201 193 196 204 213 215 212 211 214 220 219 218 222 220 215 213 215 216 213 218 216 206 203 205 206 204 201 221 244 235 207 194 207 205 206 209 201 196 196 197 191 185 186 189 191 190
327 324 322 321 321 321 320 320 320 321 321 321 321 322 325 330 330 327 319 313 312 311 311 310 310 307 298 291 282 271 260 246 234 227 223 220 221 220 213 207 206 205 199 190 189 197 208 214 213 211 211 216 217 218 220 219 216 214 217 220 216 218 213 204 207 208 209 213 209 221 243 237 216 216 214 205 209 209 207 204 198 202 202 196 192 191 194 195
331 327 323 320 319 319 318 318 318 318 318 318 319 320 323 327 330 327 319 316 316 319 319 317 317 313 301 294 285 274 260 249 237 227 223 220 219 219 213 205 202 200 196 188 186 194 204 211 215 215 212 213 216 217 217 216 219 217 216 219 219 218 211 205 211 211 211 219 217 220 234 230 210 216 218 212 212 213 216 213 205 206 210 212 205 197 197 199
334 330 326 323 321 320 319 319 319 318 318 318 318 319 322 326 328 326 321 320 320 322 322 322 324 315 301 295 293 284 265 253 240 228 224 220 218 219 215 206 200 196 192 186 186 193 201 207 211 214 213 212 214 214 212 212 217 217 216 217 220 218 211 209 212 211 213 222 224 224 232 231 219 219 223 221 222 224 226 223 218 215 213 219 218 210 203 203
332 330 327 324 322 321 320 319 318 317 317 317 317 317 320 323 326 326 321 318 321 323 322 321 323 318 301 296 302 300 279 260 244 230 223 220 217 217 214 209 202 196 191 187 189 194 198 205 210 213 215 211 211 210 207 209 212 214 214 215 219 218 214 212 209 209 214 221 228 230 235 237 238 237 231 231 234 236 238 235 232 228 223 221 222 221 211 206
332 331 328 324 321 320 318 317 316 315 314 315 315 316 319 321 323 326 323 321 326 327 321 317 320 321 306 300 307 310 299 272 249 231 222 218 215 215 212 207 202 198 195 190 191 197 198 204 208 212 214 210 209 208 207 209 212 215 217 216 218 219 217 212 207 206 211 217 227 231 237 241 245 247 240 238 238 240 246 244 240 237 232 227 225 224 219 213
335 334 331 327 325 324 322 320 319 317 316 316 317 320 323 322 318 316 323 329 331 327 321 317 316 312 304 304 309 315 315 294 258 232 223 219 215 215 212 209 201 198 199 196 194 197 201 207 210 210 211 209 208 209 210 211 214 218 221 222 222 222 221 215 211 209 209 218 226 229 238 244 244 247 246 245 244 241 243 242 241 239 235 231 229 225 221 217
338 336 332 330 329 328 326 326 327 326 324 323 323 326 330 329 323 313 313 325 328 324 321 315 310 306 302 304 307 313 321 307 261 227 221 220 218 215 213 212 205 199 199 199 200 199 203 212 215 213 212 211 209 211 213 212 214 217 217 220 223 225 223 217 216 215 213 226 234 228 235 242 242 242 242 244 245 243 241 240 241 241 239 236 233 229 224 221
339 337 334 332 330 328 326 327 331 333 331 332 332 334 336 334 330 320 315 320 324 321 318 311 305 301 299 306 310 314 322 304 248 224 219 219 218 216 214 215 212 206 200 199 203 203 207 215 218 217 216 214 211 212 214 214 215 215 212 215 219 225 225 220 221 223 222 233 239 234 238 244 243 242 241 241 242 243 244 244 244 245 245 241 235 231 227 223
339 337 336 335 332 329 328 329 333 333 331 334 335 338 340 334 330 324 318 319 321 316 313 306 296 293 296 304 311 314 318 294 233 219 217 217 218 216 215 216 215 212 205 202 205 206 210 218 221 219 216 216 216 214 215 217 218 217 212 212 216 221 221 220 224 229 232 238 241 242 247 250 247 245 244 239 238 242 247 249 249 250 249 248 245 242 237 229
340 338 337 338 335 330 330 332 332 328 326 328 330 337 340 334 330 324 317 318 318 312 305 296 288 293 298 303 313 319 310 275 227 216 217 217 216 215 215 216 216 216 212 208 209 212 215 222 226 222 218 218 218 217 217 217 220 220 215 211 214 216 214 216 221 229 237 241 242 245 255 256 247 242 242 238 238 241 244 246 247 248 249 249 248 245 242 236
342 340 338 340 337 331 330 332 331 327 325 323 323 331 337 332 328 320 318 320 313 300 293 293 297 298 302 310 320 322 289 264 238 220 220 219 217 218 216 214 216 218 217 213 214 219 221 226 231 229 225 222 220 220 220 218 222 225 220 214 212 212 212 218 222 232 249 251 244 241 251 258 245 240 240 238 238 240 240 242 243 246 249 249 247 245 241 236
342 341 339 339 337 331 329 329 329 328 326 321 319 325 330 328 325 319 321 319 296 284 285 291 302 301 310 317 313 311 283 259 252 233 226 224 221 222 221 218 216 218 220 216 218 223 224 227 228 225 228 226 223 224 223 221 222 228 226 218 214 216 216 220 225 238 254 252 240 227 232 259 252 244 242 240 240 240 240 242 242 245 248 247 246 245 242 237
341 342 340 338 335 331 327 324 325 325 324 322 319 321 323 324 325 321 323 312 273 279 287 286 295 300 313 317 308 310 287 256 264 251 238 235 229 225 225 224 220 219 219 215 220 226 225 225 224 219 220 225 224 226 226 223 222 229 232 223 218 222 224 226 233 243 252 255 251 227 226 260 262 247 241 239 241 242 242 241 241 244 243 242 244 244 242 239
339 340 340 338 334 330 325 322 321 321 322 323 322 324 322 319 323 318 319 301 265 277 287 290 294 295 308 319 319 311 283 272 278 270 254 245 240 233 229 228 226 225 221 216 217 227 228 227 225 222 220 226 227 228 230 227 223 228 234 229 224 225 229 233 239 246 253 262 260 243 233 249 259 247 241 237 237 238 239 239 240 242 240 239 241 242 241 240
337 338 339 337 333 328 326 323 319 319 321 322 324 325 317 311 315 297 260 253 276 283 286 293 298 295 298 310 321 303 276 279 284 286 284 261 247 239 232 229 227 227 227 223 222 229 232 232 233 229 226 229 231 232 234 230 226 228 231 232 229 227 229 232 237 245 251 254 253 246 236 237 257 249 239 235 235 234 236 238 239 239 238 239 239 242 245 244
335 337 337 334 331 328 327 323 318 319 323 321 320 318 309 303 292 260 229 236 270 292 288 292 302 301 299 299 304 292 269 271 278 289 304 290 257 239 230 227 224 223 225 228 229 230 232 236 239 236 233 232 232 236 237 230 230 229 220 213 223 224 224 228 232 238 246 246 243 242 236 234 257 252 237 233 234 235 236 236 238 238 237 238 240 243 248 247
334 335 335 332 330 327 326 321 315 316 320 319 315 309 304 289 235 200 206 241 269 296 296 301 310 310 314 315 316 313 291 270 266 279 300 280 252 236 222 217 217 219 220 224 229 232 230 231 234 235 238 234 229 231 232 226 228 223 205 192 200 207 212 220 224 224 235 243 237 238 235 231 243 246 240 236 235 237 239 238 239 239 237 238 240 244 248 247
333 334 333 330 329 327 326 323 315 311 313 314 308 302 292 256 218 201 223 254 280 311 319 322 322 320 326 331 332 328 314 289 268 280 300 262 239 225 209 206 205 208 217 219 222 230 229 228 228 230 237 232 224 220 219 220 221 213 200 197 197 188 193 207 209 212 231 238 225 230 231 231 241 246 244 239 236 237 239 239 240 239 239 239 241 246 250 250
333 333 330 329 330 329 327 325 319 312 309 310 304 293 255 225 220 210 223 228 264 320 331 337 334 332 332 336 345 344 321 308 281 281 310 262 227 210 204 209 205 203 213 217 213 221 227 228 226 223 226 227 221 215 209 209 211 206 199 199 201 195 191 206 205 210 232 235 222 228 234 239 247 253 249 241 237 238 239 239 239 240 239 240 242 246 253 254
334 333 330 329 329 328 326 323 319 312 309 317 302 263 228 212 216 210 218 227 251 301 329 340 341 342 340 344 357 4 347 322 304 285 330 212 206 200 199 214 215 209 209 210 208 211 218 223 217 213 215 219 218 215 213 211 212 208 202 202 208 209 210 213 208 213 236 239 211 215 227 235 234 248 250 244 239 240 242 240 239 240 239 240 243 247 251 254
335 333 329 326 327 327 326 322 317 312 314 326 280 227 219 212 209 208 225 242 256 293 327 340 342 342 345 349 355 359 0 342 324 319 350 188 196 214 214 213 226 216 207 205 206 211 220 226 211 208 211 214 216 216 215 217 220 215 205 206 211 212 212 221 230 225 238 257 212 205 220 230 226 242 249 246 244 242 242 241 238 237 238 239 242 245 248 252
336 330 327 326 328 326 325 323 317 313 315 319 263 215 211 209 206 198 216 252 267 303 324 341 343 341 345 346 341 343 347 344 331 324 332 182 184 210 222 201 215 216 201 202 201 205 221 227 212 208 211 212 215 216 215 214 216 213 208 209 212 212 213 221 238 229 230 252 226 210 231 240 243 252 248 244 246 244 240 240 237 236 237 239 241 242 245 248
335 329 328 330 330 325 324 324 319 315 310 296 247 208 201 203 206 203 222 269 276 300 319 331 335 338 346 346 337 332 337 342 339 335 328 290 250 226 135 139 155 150 183 201 207 208 223 222 205 204 209 211 213 217 220 218 214 209 210 209 207 211 218 222 232 224 218 241 218 207 235 239 230 245 247 240 242 243 240 237 236 236 237 238 238 240 243 244
338 337 335 333 333 332 331 330 328 323 303 276 228 202 197 197 205 211 224 263 270 285 308 318 330 334 331 341 337 330 337 342 340 339 320 293 283 240 196 117 126 95 118 196 218 230 235 229 210 203 206 211 212 216 223 225 221 216 215 213 205 206 212 213 220 228 222 237 226 214 240 241 225 228 241 240 239 241 241 238 235 236 238 237 237 238 241 241
344 341 336 335 339 342 344 345 346 343 301 249 210 192 192 195 205 219 221 241 263 273 288 292 305 317 311 323 327 329 338 337 332 337 316 291 286 255 260 252 170 80 40 219 265 279 240 231 224 207 203 208 212 214 219 223 221 219 221 221 213 212 210 207 213 222 221 233 235 225 239 243 235 233 235 240 242 243 243 240 236 236 237 237 236 239 242 242
348 342 336 338 343 346 351 356 355 354 300 229 212 200 199 201 204 218 228 240 256 262 268 276 284 294 299 309 316 321 331 330 327 330 301 289 296 278 276 286 261 272 340 296 277 299 246 225 237 211 199 203 207 209 212 212 209 211 216 216 212 214 214 212 217 219 220 233 233 223 239 242 243 243 240 239 244 245 246 244 239 236 236 237 238 241 244 244
351 347 341 340 344 347 354 0 2 2 335 225 216 211 211 214 212 214 230 237 251 258 254 258 274 286 293 299 304 309 319 327 325 321 302 293 310 306 290 306 310 286 293 308 282 278 238 224 240 225 205 200 200 204 210 211 204 200 205 206 205 211 210 209 220 219 219 230 229 224 253 253 244 246 246 243 243 243 246 247 244 238 235 235 239 242 244 246
355 353 346 342 344 346 352 3 11 12 358 219 218 221 223 231 234 230 224 214 230 256 252 257 272 282 289 289 291 300 314 325 318 309 300 292 308 315 300 311 330 321 309 303 269 255 246 236 246 243 224 205 196 197 205 210 210 206 205 202 203 210 211 212 222 215 215 225 230 235 253 257 250 241 233 233 239 240 241 246 247 243 238 236 238 242 245 246
357 356 350 345 346 348 353 5 15 14 356 228 230 239 238 246 252 249 247 243 249 263 262 262 267 269 275 276 280 294 309 323 317 293 281 296 306 304 303 314 329 333 329 302 264 252 252 252 257 254 235 216 207 206 207 209 211 215 213 207 207 210 211 217 226 220 217 219 218 226 245 253 257 253 240 223 221 227 228 233 242 243 240 238 238 241 242 243
358 357 350 347 350 350 354 7 17 11 333 247 246 252 254 261 264 263 264 263 261 264 264 260 259 261 263 262 271 290 302 312 311 290 286 295 300 300 303 312 321 334 341 306 273 260 249 246 254 255 229 214 214 219 217 212 210 212 211 206 209 210 211 219 225 230 241 223 213 223 241 246 257 266 260 243 225 220 221 222 227 233 237 239 240 240 241 242
358 356 352 350 353 351 350 359 7 3 339 265 252 258 263 267 269 269 269 266 260 254 252 251 253 255 255 259 273 288 297 299 293 292 294 293 294 298 297 296 305 322 321 295 286 280 256 236 231 243 226 202 201 204 199 198 200 204 202 200 205 210 214 219 223 226 237 228 221 227 238 249 259 268 273 258 229 215 215 221 222 220 224 229 230 231 234 236
358 356 355 355 358 1 356 353 354 356 352 338 299 277 275 273 276 277 267 258 252 246 246 248 253 259 259 264 273 276 283 290 289 288 293 293 291 288 283 284 291 301 301 294 290 279 258 242 235 247 250 246 270 284 226 207 211 214 205 195 197 209 218 219 218 221 228 236 235 232 233 250 261 259 264 268 238 213 210 225 231 223 217 216 217 220 225 229
358 357 357 358 2 6 360 352 352 357 353 346 340 322 314 302 293 289 270 254 246 244 249 252 255 262 265 269 274 274 275 279 282 284 286 286 285 280 280 282 286 290 294 297 295 279 260 253 245 247 250 253 268 279 265 244 239 237 225 209 201 209 228 230 226 223 227 238 244 231 231 243 252 245 238 245 236 221 219 233 238 228 218 218 220 222 226 231
358 356 355 357 1 1 357 357 5 8 354 346 339 327 328 318 299 288 277 261 248 247 254 260 263 267 269 273 277 279 281 279 279 280 279 278 279 279 279 279 279 280 280 290 307 293 266 263 259 253 252 253 259 267 266 261 256 250 241 228 221 226 246 253 244 232 231 242 245 225 230 239 244 243 234 221 223 234 239 242 241 232 228 232 236 235 232 231
357 354 352 353 357 357 356 2 15 13 358 351 341 327 323 317 304 293 288 276 259 256 260 264 268 270 272 277 280 281 284 282 277 277 278 278 279 279 279 278 272 268 268 275 294 295 281 277 272 258 254 251 251 258 266 266 260 255 248 240 238 243 254 263 256 243 243 252 250 237 237 239 239 241 241 237 240 248 251 252 252 250 249 251 255 256 246 236
355 354 352 351 354 354 356 6 15 10 7 6 346 328 320 314 307 298 296 294 278 269 268 270 274 276 277 280 284 285 282 279 280 284 286 284 280 281 283 282 274 268 269 271 274 283 285 272 261 262 266 260 252 255 264 262 257 257 251 244 247 252 258 263 259 252 253 255 246 240 243 245 242 242 244 245 247 249 251 253 255 254 255 257 260 264 259 246
354 353 350 351 354 353 355 8 13 8 16 20 359 339 327 321 316 305 300 298 287 276 274 281 287 287 286 284 287 289 284 282 284 286 287 284 281 281 279 276 274 273 273 273 272 273 278 274 268 272 282 275 258 251 255 255 261 265 254 244 242 247 253 256 254 256 260 254 242 240 244 247 246 246 248 249 250 252 254 256 256 256 257 261 265 268 264 254
353 352 346 349 356 354 353 4 10 11 23 18 2 350 335 328 324 322 313 292 285 290 292 298 300 298 299 296 292 290 286 285 285 283 284 283 280 278 276 273 273 272 272 273 272 268 271 278 280 279 279 275 261 247 243 248 263 266 253 242 236 237 248 250 241 247 260 251 237 235 239 241 243 246 249 250 251 254 257 258 259 260 261 264 269 270 266 264
Height
3148 3147 3146 3145 3144 3144 3143 3142 3141 3140 3140 3139 3138 3137 3136 3136 3135 3135 3134 3134 3133 3133 3133 3133 3133 3133 3133 3133 3133 3133 3134 3134 3134 3136 3135 3133 3133 3135 3135 3136 3137 3139 3140 3142 3143 3145 3147 3149 3151 3152 3154 3156 3158 3159 3160 3160 3161 3162 3162 3162 3163 3164 3164 3165 3165 3166 3166 3167 3167 3168 3169 3169 3170 3171 3172 3172 3173 3173 3174 3175 3176 3177 3178 3178 3179 3181 3183 3185
3147 3146 3145 3144 3143 3143 3142 3141 3140 3139 3138 3138 3137 3136 3135 3134 3134 3133 3133 3132 3131 3131 3131 3131 3131 3131 3131 3132 3132 3132 3132 3133 3133 3134 3132 3131 3133 3134 3134 3134 3136 3137 3139 3142 3144 3146 3148 3149 3151 3152 3154 3156 3157 3158 3159 3160 3160 3161 3162 3162 3163 3164 3164 3165 3165 3165 3166 3166 3167 3168 3169 3170 3170 3171 3172 3173 3173 3173 3174 3175 3176 3177 3177 3178 3179 3180 3182 3184
3147 3146 3145 3144 3143 3142 3141 3140 3139 3138 3137 3136 3136 3135 3134 3133 3132 3132 3131 3130 3130 3129 3129 3129 3129 3129 3130 3130 3130 3131 3131 3131 3131 3131 3130 3131 3132 3133 3133 3134 3135 3137 3139 3142 3144 3146 3148 3149 3151 3152 3154 3155 3156 3157 3158 3159 3160 3161 3161 3162 3164 3164 3164 3165 3165 3165 3166 3166 3166 3167 3168 3169 3170 3171 3172 3173 3174 3174 3174 3175 3176 3177 3178 3178 3179 3181 3181 3183
3146 3145 3144 3143 3142 3141 3140 3139 3138 3137 3136 3135 3134 3133 3133 3132 3131 3130 3130 3129 3128 3128 3127 3127 3127 3127 3127 3128 3129 3129 3129 3129 3129 3129 3129 3130 3131 3131 3132 3132 3134 3136 3138 3140 3141 3143 3145 3147 3149 3151 3153 3154 3155 3156 3156 3158 3159 3160 3161 3162 3163 3164 3164 3164 3164 3165 3165 3166 3166 3167 3168 3169 3170 3171 3172 3173 3174 3174 3175 3176 3176 3177 3178 3179 3180 3181 3182 3183
3145 3144 3143 3142 3141 3140 3139 3138 3136 3136 3135 3134 3133 3132 3131 3130 3130 3129 3128 3127 3127 3126 3126 3125 3125 3125 3125 3126 3127 3127 3128 3127 3127 3128 3128 3128 3129 3130 3130 3131 3133 3135 3136 3138 3139 3140 3142 3143 3146 3148 3150 3151 3153 3153 3155 3157 3158 3159 3161 3162 3163 3163 3164 3164 3164 3165 3165 3165 3166 3167 3168 3169 3170 3171 3172 3173 3174 3175 3175 3176 3176 3176 3177 3179 3180 3181 3182 3183
3144 3143 3142 3142 3141 3139 3138 3137 3136 3135 3134 3133 3131 3131 3130 3129 3128 3127 3127 3126 3125 3125 3124 3123 3123 3123 3124 3124 3125 3125 3126 3126 3126 3127 3127 3127 3128 3128 3129 3130 3132 3133 3134 3136 3137 3139 3140 3141 3143 3144 3146 3148 3150 3152 3154 3157 3158 3159 3160 3161 3162 3162 3163 3163 3164 3165 3165 3165 3166 3167 3168 3169 3170 3171 3172 3173 3174 3174 3175 3175 3176 3176 3177 3179 3180 3182 3182 3184
3143 3142 3141 3140 3139 3138 3137 3135 3135 3134 3133 3131 3130 3129 3129 3128 3127 3126 3125 3124 3124 3123 3122 3122 3121 3122 3122 3122 3122 3123 3124 3124 3124 3126 3125 3126 3126 3126 3128 3129 3130 3131 3132 3134 3135 3137 3139 3140 3141 3143 3145 3147 3149 3152 3154 3156 3157 3158 3160 3160 3161 3162 3162 3162 3163 3164 3165 3165 3166 3166 3167 3168 3170 3171 3172 3173 3174 3174 3175 3175 3176 3176 3177 3178 3179 3181 3183 3184
3142 3141 3140 3139 3138 3137 3136 3134 3133 3133 3131 3130 3129 3128 3127 3126 3125 3125 3124 3123 3122 3121 3121 3120 3120 3120 3120 3120 3120 3121 3122 3121 3122 3124 3124 3124 3124 3124 3126 3128 3128 3129 3130 3132 3135 3137 3139 3140 3142 3143 3144 3145 3148 3152 3154 3155 3156 3158 3159 3160 3161 3161 3162 3162 3163 3163 3164 3165 3165 3166 3166 3168 3169 3170 3172 3173 3174 3174 3175 3175 3175 3176 3177 3178 3179 3181 3182 3184
3140 3139 3138 3137 3137 3136 3134 3133 3132 3131 3130 3129 3127 3126 3126 3124 3124 3123 3122 3121 3120 3119 3119 3118 3118 3118 3118 3118 3118 3119 3120 3120 3120 3122 3122 3122 3122 3123 3124 3126 3127 3128 3129 3131 3134 3136 3137 3140 3142 3144 3145 3146 3149 3151 3153 3154 3155 3157 3159 3160 3160 3161 3161 3162 3162 3163 3163 3164 3164 3165 3166 3167 3168 3169 3170 3172 3173 3174 3174 3175 3176 3176 3177 3178 3179 3180 3182 3184
3139 3138 3137 3136 3135 3134 3133 3131 3130 3129 3128 3127 3126 3125 3124 3123 3122 3121 3121 3120 3119 3118 3117 3117 3116 3116 3116 3116 3116 3116 3117 3117 3118 3119 3119 3120 3120 3121 3123 3125 3126 3127 3128 3130 3131 3133 3136 3140 3143 3144 3146 3147 3149 3150 3151 3152 3154 3156 3158 3159 3159 3160 3160 3160 3161 3162 3162 3163 3164 3164 3165 3166 3167 3168 3169 3170 3171 3173 3174 3175 3176 3176 3177 3178 3179 3181 3182 3184
3138 3137 3136 3135 3134 3133 3131 3130 3129 3128 3126 3125 3124 3124 3123 3121 3120 3119 3118 3117 3116 3116 3115 3115 3114 3113 3113 3113 3113 3113 3114 3115 3115 3115 3117 3117 3118 3119 3121 3123 3125 3126 3127 3128 3130 3133 3137 3140 3141 3143 3144 3145 3147 3149 3149 3150 3153 3155 3156 3157 3158 3158 3159 3159 3160 3161 3162 3162 3163 3164 3165 3165 3166 3166 3167 3169 3170 3172 3173 3174 3176 3176 3177 3178 3179 3180 3181 3183
3137 3135 3134 3133 3132 3131 3130 3129 3128 3126 3125 3124 3123 3122 3121 3119 3118 3117 3116 3115 3114 3114 3113 3112 3112 3111 3111 3111 3110 3110 3112 3113 3112 3113 3114 3116 3117 3118 3119 3121 3123 3124 3125 3127 3130 3134 3136 3138 3140 3142 3143 3144 3146 3147 3147 3149 3152 3154 3155 3156 3157 3157 3158 3158 3159 3160 3161 3162 3163 3164 3164 3164 3163 3164 3166 3168 3169 3171 3172 3174 3175 3176 3176 3177 3178 3180 3181 3182
3135 3133 3132 3131 3130 3129 3128 3127 3126 3125 3124 3122 3122 3121 3119 3118 3117 3115 3114 3112 3112 3112 3111 3110 3110 3109 3109 3108 3108 3108 3109 3110 3110 3111 3113 3114 3114 3116 3117 3119 3120 3121 3122 3125 3129 3132 3134 3136 3138 3140 3141 3143 3144 3146 3146 3148 3151 3152 3153 3154 3155 3156 3156 3157 3159 3160 3160 3161 3162 3163 3163 3162 3163 3164 3165 3167 3168 3170 3171 3173 3174 3175 3176 3177 3178 3179 3181 3181
3133 3132 3130 3129 3128 3127 3126 3125 3124 3123 3122 3121 3120 3119 3118 3116 3115 3113 3111 3109 3109 3109 3108 3108 3108 3108 3107 3106 3106 3105 3106 3107 3107 3109 3110 3111 3112 3114 3115 3116 3118 3119 3121 3123 3126 3130 3133 3135 3136 3137 3139 3141 3142 3144 3145 3146 3149 3150 3152 3152 3153 3154 3154 3156 3158 3159 3160 3161 3162 3162 3162 3161 3163 3164 3164 3165 3167 3168 3170 3172 3173 3175 3175 3176 3177 3179 3180 3181
3132 3130 3129 3127 3126 3125 3124 3123 3122 3121 3120 3119 3118 3117 3116 3115 3113 3112 3109 3107 3107 3107 3106 3106 3106 3106 3105 3103 3103 3103 3103 3104 3105 3106 3108 3109 3110 3111 3113 3115 3116 3118 3120 3122 3124 3128 3130 3133 3134 3135 3137 3138 3140 3142 3143 3145 3147 3148 3149 3150 3150 3150 3152 3155 3157 3157 3159 3160 3161 3162 3161 3160 3162 3163 3163 3164 3165 3167 3169 3171 3172 3174 3175 3176 3177 3178 3180 3181
3131 3129 3127 3125 3124 3123 3122 3121 3120 3119 3118 3117 3116 3115 3114 3113 3111 3110 3107 3106 3105 3105 3104 3104 3104 3104 3103 3101 3101 3101 3102 3102 3103 3104 3105 3107 3108 3109 3111 3112 3114 3116 3118 3120 3122 3125 3128 3130 3132 3133 3135 3136 3138 3140 3142 3144 3145 3145 3146 3148 3148 3148 3152 3154 3155 3156 3158 3159 3160 3160 3160 3160 3161 3162 3163 3163 3164 3166 3167 3169 3171 3173 3174 3175 3177 3178 3179 3180
3129 3127 3125 3123 3122 3120 3119 3118 3118 3117 3116 3115 3114 3113 3112 3111 3110 3108 3105 3104 3104 3103 3103 3103 3103 3102 3101 3100 3100 3100 3101 3100 3101 3102 3103 3104 3106 3108 3109 3111 3112 3114 3115 3117 3120 3122 3125 3127 3129 3131 3132 3134 3136 3138 3140 3141 3141 3141 3143 3145 3146 3147 3150 3152 3153 3155 3157 3157 3158 3159 3159 3159 3160 3162 3162 3163 3164 3165 3166 3167 3169 3171 3173 3174 3176 3177 3178 3179
3128 3126 3124 3121 3119 3119 3117 3116 3115 3114 3114 3113 3112 3111 3110 3109 3108 3106 3104 3103 3102 3102 3102 3101 3101 3101 3100 3099 3099 3099 3099 3099 3099 3100 3101 3102 3105 3106 3108 3110 3111 3112 3114 3115 3117 3119 3122 3124 3126 3128 3129 3130 3132 3133 3135 3136 3137 3138 3140 3142 3144 3146 3148 3149 3152 3154 3155 3156 3157 3158 3157 3158 3159 3160 3161 3162 3162 3163 3164 3166 3168 3169 3171 3173 3174 3175 3176 3178
3127 3125 3122 3119 3118 3117 3115 3114 3113 3112 3111 3110 3109 3108 3107 3107 3106 3105 3103 3101 3101 3101 3100 3100 3100 3100 3099 3098 3098 3097 3098 3097 3097 3098 3099 3101 3103 3104 3106 3108 3110 3112 3112 3113 3115 3117 3119 3121 3122 3122 3122 3124 3126 3128 3131 3133 3135 3137 3139 3141 3143 3145 3146 3147 3150 3152 3153 3154 3155 3156 3156 3156 3158 3159 3159 3160 3161 3162 3163 3164 3166 3167 3169 3171 3172 3174 3175 3176
3125 3123 3120 3118 3116 3115 3113 3112 3111 3109 3109 3108 3107 3106 3105 3105 3104 3104 3103 3100 3099 3099 3099 3098 3098 3099 3098 3097 3096 3096 3096 3096 3095 3097 3098 3099 3101 3103 3104 3106 3108 3109 3110 3112 3113 3115 3117 3117 3115 3115 3117 3120 3124 3127 3130 3132 3135 3137 3139 3141 3142 3143 3145 3146 3149 3151 3152 3152 3153 3154 3154 3155 3156 3157 3158 3159 3160 3160 3161 3162 3163 3165 3167 3169 3171 3172 3174 3176
3124 3122 3119 3116 3114 3113 3111 3110 3109 3107 3106 3105 3104 3103 3103 3102 3102 3102 3102 3100 3098 3098 3097 3097 3096 3097 3096 3096 3095 3095 3095 3094 3094 3094 3095 3097 3099 3101 3102 3104 3105 3105 3107 3111 3112 3114 3115 3113 3111 3113 3116 3120 3124 3127 3129 3132 3134 3136 3138 3139 3140 3141 3142 3145 3146 3148 3150 3150 3151 3152 3152 3153 3154 3155 3156 3156 3157 3158 3159 3160 3161 3163 3165 3167 3169 3171 3172 3174
3122 3120 3118 3115 3113 3111 3109 3108 3107 3106 3104 3103 3102 3101 3101 3101 3100 3099 3099 3099 3097 3096 3096 3095 3095 3095 3095 3095 3094 3094 3094 3093 3092 3092 3093 3095 3097 3099 3101 3101 3103 3103 3106 3108 3110 3111 3110 3108 3110 3113 3117 3121 3124 3126 3128 3130 3132 3134 3136 3137 3138 3139 3140 3144 3145 3146 3148 3148 3149 3150 3150 3150 3151 3152 3153 3153 3154 3155 3157 3158 3160 3162 3164 3165 3167 3169 3171 3172
3120 3118 3116 3113 3111 3109 3107 3106 3105 3103 3102 3101 3100 3100 3099 3099 3099 3098 3097 3097 3096 3095 3094 3094 3094 3094 3094 3094 3094 3093 3092 3092 3091 3091 3092 3093 3095 3097 3098 3099 3101 3103 3104 3104 3105 3106 3106 3106 3108 3112 3117 3121 3123 3124 3126 3128 3130 3131 3133 3135 3136 3137 3140 3144 3145 3145 3146 3147 3147 3148 3148 3148 3149 3149 3149 3150 3151 3153 3155 3156 3158 3160 3161 3164 3166 3168 3169 3171
3118 3115 3113 3112 3109 3107 3105 3104 3103 3101 3100 3099 3098 3098 3098 3097 3097 3096 3095 3095 3094 3094 3093 3093 3093 3092 3093 3093 3093 3093 3092 3091 3091 3090 3091 3091 3092 3094 3095 3097 3100 3101 3101 3102 3104 3104 3105 3106 3107 3111 3116 3118 3121 3122 3124 3125 3126 3127 3130 3131 3133 3136 3139 3142 3143 3144 3145 3146 3146 3147 3147 3145 3145 3146 3146 3148 3149 3150 3152 3153 3155 3156 3158 3161 3164 3165 3167 3169
3116 3113 3111 3109 3107 3105 3104 3103 3101 3100 3098 3097 3096 3096 3096 3096 3095 3094 3093 3093 3092 3092 3092 3092 3092 3091 3091 3091 3091 3091 3091 3090 3090 3090 3090 3090 3091 3092 3093 3095 3097 3098 3099 3102 3104 3104 3105 3107 3107 3111 3114 3116 3118 3119 3121 3123 3124 3125 3126 3128 3132 3136 3138 3140 3142 3143 3144 3144 3144 3146 3146 3141 3141 3143 3144 3146 3147 3147 3149 3150 3151 3153 3155 3158 3160 3162 3165 3167
3113 3111 3109 3107 3106 3104 3102 3101 3099 3098 3097 3096 3095 3095 3095 3094 3094 3093 3092 3091 3091 3090 3090 3090 3090 3090 3090 3090 3090 3090 3090 3089 3088 3089 3089 3089 3090 3091 3093 3094 3095 3096 3098 3102 3104 3102 3103 3105 3106 3110 3112 3114 3116 3117 3119 3122 3124 3124 3123 3128 3132 3135 3137 3139 3141 3143 3142 3142 3142 3144 3144 3139 3138 3139 3141 3143 3144 3145 3147 3147 3149 3151 3152 3155 3157 3159 3162 3164
3111 3110 3107 3105 3104 3103 3101 3099 3097 3096 3096 3095 3094 3094 3093 3092 3092 3091 3091 3090 3089 3089 3089 3089 3089 3089 3088 3089 3089 3089 3089 3088 3088 3087 3088 3089 3089 3090 3091 3092 3093 3095 3097 3101 3101 3097 3099 3103 3104 3108 3110 3111 3113 3113 3116 3120 3122 3122 3123 3128 3132 3134 3136 3138 3140 3142 3141 3140 3140 3141 3142 3139 3135 3135 3138 3140 3141 3142 3144 3145 3147 3148 3150 3152 3155 3157 3159 3162
3110 3108 3106 3104 3102 3100 3099 3097 3096 3094 3094 3093 3092 3092 3091 3091 3091 3090 3090 3090 3088 3088 3088 3087 3088 3087 3087 3087 3088 3088 3088 3087 3087 3087 3087 3087 3088 3088 3090 3090 3092 3094 3095 3097 3096 3094 3097 3100 3102 3106 3109 3108 3109 3112 3115 3118 3121 3121 3123 3127 3131 3134 3135 3138 3140 3140 3141 3140 3137 3137 3140 3138 3132 3131 3135 3137 3137 3138 3140 3142 3144 3146 3148 3150 3152 3154 3156 3159
3108 3106 3104 3102 3100 3098 3096 3095 3094 3093 3092 3091 3090 3090 3089 3089 3089 3089 3090 3090 3088 3086 3086 3086 3086 3086 3086 3087 3087 3087 3086 3086 3086 3085 3086 3086 3086 3087 3087 3089 3091 3092 3093 3094 3094 3095 3097 3099 3101 3105 3106 3105 3108 3112 3114 3117 3119 3121 3123 3127 3130 3133 3134 3138 3138 3138 3141 3137 3131 3133 3137 3136 3129 3127 3131 3133 3133 3135 3137 3140 3142 3144 3147 3148 3150 3152 3154 3157
3106 3104 3102 3100 3099 3097 3095 3093 3092 3091 3090 3089 3088 3088 3088 3087 3088 3088 3089 3088 3086 3086 3085 3085 3085 3085 3085 3086 3086 3086 3085 3085 3085 3084 3084 3084 3084 3084 3085 3087 3089 3090 3092 3092 3092 3094 3096 3099 3100 3102 3102 3104 3109 3112 3113 3115 3117 3120 3124 3127 3129 3131 3133 3136 3135 3138 3138 3129 3125 3129 3133 3135 3128 3121 3125 3128 3128 3132 3135 3138 3140 3142 3145 3146 3148 3150 3152 3154
3104 3102 3100 3098 3097 3095 3094 3093 3091 3089 3089 3088 3087 3086 3086 3086 3087 3087 3087 3085 3085 3085 3084 3084 3084 3084 3083 3084 3085 3085 3084 3084 3084 3083 3083 3083 3083 3083 3084 3085 3086 3088 3090 3090 3090 3092 3094 3097 3097 3098 3100 3104 3108 3111 3111 3113 3116 3119 3123 3126 3128 3128 3131 3133 3133 3136 3131 3120 3122 3127 3130 3133 3124 3114 3120 3124 3126 3131 3133 3135 3138 3140 3142 3144 3146 3148 3150 3152
3102 3100 3098 3096 3094 3093 3092 3092 3090 3088 3087 3087 3085 3085 3085 3085 3085 3085 3084 3084 3085 3084 3083 3083 3083 3082 3082 3083 3083 3083 3083 3082 3082 3082 3082 3082 3082 3082 3082 3082 3083 3085 3086 3087 3088 3089 3091 3093 3094 3097 3100 3102 3105 3108 3110 3111 3113 3117 3120 3123 3124 3125 3127 3128 3127 3126 3121 3117 3121 3124 3127 3126 3116 3110 3117 3121 3124 3127 3129 3133 3135 3138 3140 3142 3144 3146 3148 3150
3100 3098 3096 3094 3092 3090 3089 3088 3088 3086 3085 3085 3084 3083 3084 3084 3084 3083 3083 3084 3084 3083 3083 3083 3082 3082 3082 3082 3082 3082 3082 3081 3081 3081 3081 3081 3081 3081 3081 3080 3081 3082 3082 3083 3086 3087 3089 3090 3092 3096 3098 3099 3101 3104 3106 3107 3109 3112 3115 3117 3118 3119 3121 3121 3120 3119 3117 3117 3119 3123 3125 3119 3110 3110 3113 3116 3121 3124 3126 3130 3133 3135 3137 3139 3142 3144 3145 3147
3099 3096 3093 3091 3090 3088 3087 3086 3085 3084 3083 3083 3083 3083 3083 3083 3083 3082 3082 3083 3083 3082 3082 3082 3082 3082 3082 3081 3082 3082 3081 3080 3080 3080 3080 3080 3080 3080 3080 3080 3080 3080 3080 3082 3083 3085 3086 3085 3087 3091 3093 3095 3097 3100 3102 3104 3106 3108 3111 3114 3114 3114 3115 3115 3115 3115 3116 3116 3117 3121 3120 3111 3107 3109 3109 3113 3119 3122 3124 3127 3130 3132 3134 3137 3139 3141 3142 3143
3097 3094 3092 3089 3087 3086 3085 3084 3082 3082 3081 3081 3082 3082 3082 3082 3081 3081 3082 3082 3082 3082 3082 3082 3082 3082 3082 3081 3081 3081 3081 3080 3079 3080 3079 3079 3079 3079 3079 3079 3079 3079 3079 3080 3081 3081 3082 3081 3082 3086 3089 3091 3094 3097 3100 3103 3104 3105 3109 3110 3109 3110 3113 3113 3113 3113 3115 3115 3113 3114 3110 3104 3105 3107 3108 3112 3116 3118 3122 3124 3127 3129 3131 3134 3136 3138 3140 3141
3095 3092 3090 3088 3086 3084 3083 3082 3081 3079 3079 3080 3080 3081 3080 3081 3080 3080 3081 3081 3081 3081 3081 3082 3082 3082 3082 3081 3081 3081 3081 3080 3080 3079 3079 3079 3079 3078 3078 3078 3078 3078 3078 3078 3079 3079 3079 3079 3080 3084 3087 3089 3092 3094 3096 3099 3100 3101 3104 3104 3105 3109 3112 3113 3112 3113 3115 3112 3108 3107 3104 3103 3106 3106 3106 3111 3112 3115 3119 3120 3124 3126 3128 3131 3133 3135 3138 3139
3094 3091 3089 3087 3085 3083 3081 3080 3079 3078 3077 3078 3079 3079 3079 3079 3079 3080 3080 3080 3080 3080 3081 3081 3081 3081 3081 3081 3080 3080 3080 3080 3079 3079 3079 3078 3078 3078 3077 3077 3077 3077 3077 3077 3078 3078 3078 3077 3078 3082 3084 3086 3089 3092 3094 3095 3097 3098 3100 3101 3105 3110 3110 3111 3111 3110 3111 3108 3103 3103 3101 3102 3105 3101 3101 3107 3110 3112 3115 3118 3121 3123 3125 3128 3130 3133 3136 3137
3092 3089 3086 3085 3084 3082 3080 3078 3077 3076 3076 3076 3077 3077 3077 3078 3078 3079 3079 3080 3080 3080 3080 3080 3081 3080 3081 3080 3080 3079 3079 3079 3079 3079 3078 3078 3077 3077 3077 3077 3077 3077 3077 3077 3077 3077 3077 3077 3077 3079 3082 3084 3087 3090 3092 3093 3095 3097 3098 3099 3102 3104 3104 3107 3107 3105 3105 3103 3100 3101 3100 3098 3098 3096 3098 3104 3106 3109 3112 3115 3118 3119 3121 3125 3127 3130 3133 3135
3089 3086 3084 3083 3082 3080 3078 3077 3075 3075 3074 3074 3075 3076 3076 3077 3077 3078 3079 3079 3079 3079 3079 3079 3080 3080 3080 3080 3079 3078 3078 3078 3078 3078 3078 3078 3077 3076 3076 3076 3076 3076 3076 3076 3077 3076 3077 3077 3076 3076 3080 3082 3084 3088 3089 3091 3092 3094 3096 3097 3098 3099 3099 3101 3101 3100 3101 3099 3098 3099 3096 3092 3092 3094 3098 3102 3104 3107 3110 3112 3114 3116 3119 3122 3125 3128 3130 3132
3087 3085 3083 3081 3080 3078 3077 3076 3074 3074 3074 3074 3074 3075 3076 3076 3077 3077 3078 3078 3078 3079 3079 3079 3079 3079 3079 3079 3078 3078 3077 3077 3077 3077 3077 3077 3076 3076 3075 3075 3075 3075 3075 3075 3076 3076 3076 3077 3075 3075 3077 3080 3081 3083 3085 3087 3088 3090 3092 3094 3095 3096 3096 3098 3097 3096 3097 3096 3095 3097 3092 3087 3089 3092 3096 3099 3102 3105 3107 3109 3112 3114 3117 3120 3122 3125 3127 3129
3086 3084 3081 3079 3078 3077 3076 3075 3074 3073 3073 3074 3074 3075 3075 3076 3077 3077 3077 3078 3078 3078 3078 3078 3078 3079 3078 3078 3078 3077 3076 3076 3075 3076 3076 3076 3076 3075 3075 3074 3074 3074 3074 3075 3075 3075 3075 3075 3074 3073 3075 3076 3078 3079 3081 3083 3084 3085 3087 3089 3090 3091 3092 3093 3091 3090 3093 3092 3092 3093 3089 3085 3088 3091 3094 3098 3100 3103 3105 3107 3109 3112 3114 3117 3119 3122 3124 3126
3084 3083 3080 3079 3077 3076 3075 3074 3073 3073 3073 3073 3073 3074 3075 3075 3076 3077 3077 3077 3077 3077 3077 3077 3077 3077 3077 3077 3077 3076 3076 3075 3075 3075 3075 3075 3075 3075 3074 3073 3073 3073 3073 3074 3074 3074 3074 3074 3073 3072 3072 3073 3075 3077 3078 3080 3081 3082 3083 3084 3086 3087 3088 3088 3086 3086 3089 3089 3090 3092 3087 3083 3086 3090 3093 3096 3098 3101 3103 3105 3107 3109 3112 3114 3117 3119 3121 3123
3083 3081 3080 3078 3076 3075 3074 3073 3073 3072 3072 3072 3073 3073 3074 3075 3075 3076 3076 3076 3076 3076 3076 3076 3076 3076 3076 3076 3076 3075 3075 3075 3074 3074 3074 3074 3074 3074 3073 3073 3073 3073 3072 3072 3073 3073 3073 3072 3072 3071 3071 3073 3074 3075 3076 3077 3079 3080 3080 3081 3082 3083 3083 3084 3084 3084 3085 3084 3087 3090 3084 3081 3084 3088 3092 3094 3095 3097 3100 3102 3104 3107 3109 3112 3114 3117 3119 3121
3082 3080 3079 3078 3076 3075 3074 3073 3072 3072 3072 3072 3072 3072 3073 3073 3074 3074 3074 3074 3075 3075 3075 3074 3074 3075 3075 3075 3075 3074 3074 3074 3074 3073 3073 3073 3073 3072 3072 3072 3072 3072 3072 3072 3071 3072 3072 3072 3071 3070 3070 3071 3073 3073 3073 3074 3075 3076 3077 3078 3079 3080 3081 3082 3083 3084 3083 3081 3084 3084 3081 3081 3084 3086 3089 3093 3094 3094 3096 3099 3102 3104 3107 3109 3112 3114 3116 3118
3081 3079 3078 3077 3075 3074 3073 3072 3071 3071 3071 3071 3071 3071 3072 3072 3072 3072 3073 3073 3073 3073 3073 3073 3073 3073 3073 3073 3074 3073 3073 3074 3073 3073 3072 3072 3072 3071 3071 3071 3071 3071 3071 3070 3070 3070 3071 3070 3070 3069 3067 3066 3068 3068 3068 3070 3071 3073 3074 3075 3077 3078 3079 3080 3081 3082 3081 3080 3081 3081 3079 3082 3084 3085 3088 3090 3092 3093 3094 3096 3099 3102 3104 3107 3109 3112 3113 3115
3080 3078 3077 3076 3074 3074 3072 3071 3070 3070 3070 3070 3071 3071 3071 3071 3071 3071 3072 3072 3072 3072 3072 3072 3072 3072 3072 3073 3073 3073 3072 3072 3072 3072 3071 3071 3071 3070 3070 3070 3070 3070 3070 3069 3069 3069 3069 3068 3068 3068 3066 3064 3064 3065 3066 3067 3069 3070 3071 3073 3074 3075 3076 3077 3079 3079 3078 3078 3078 3079 3080 3082 3083 3085 3088 3089 3090 3092 3093 3095 3097 3100 3102 3104 3106 3108 3109 3111
3079 3077 3076 3075 3074 3073 3072 3071 3070 3069 3069 3070 3070 3070 3070 3071 3070 3070 3071 3071 3071 3071 3071 3071 3071 3071 3071 3071 3072 3072 3071 3071 3071 3071 3071 3070 3070 3069 3069 3069 3069 3068 3068 3068 3067 3067 3067 3067 3067 3066 3065 3063 3063 3063 3064 3066 3066 3067 3069 3070 3072 3073 3074 3074 3075 3076 3076 3077 3075 3077 3081 3082 3083 3085 3087 3088 3090 3091 3092 3094 3095 3097 3099 3100 3102 3103 3105 3107
3078 3077 3075 3074 3073 3072 3071 3070 3069 3069 3069 3069 3069 3070 3070 3070 3070 3070 3070 3070 3070 3070 3071 3070 3070 3070 3070 3070 3070 3070 3070 3070 3070 3070 3069 3069 3068 3068 3067 3067 3067 3067 3067 3067 3066 3066 3066 3065 3065 3064 3063 3062 3062 3062 3063 3064 3065 3065 3066 3068 3069 3071 3071 3071 3072 3073 3074 3073 3073 3076 3079 3080 3082 3084 3085 3086 3087 3088 3090 3091 3092 3094 3096 3097 3099 3100 3101 3103
3078 3076 3074 3073 3072 3072 3071 3070 3069 3069 3069 3069 3069 3069 3069 3070 3069 3069 3069 3070 3070 3070 3070 3070 3070 3069 3069 3069 3069 3069 3069 3069 3069 3068 3068 3068 3067 3066 3066 3066 3066 3065 3065 3065 3065 3065 3064 3064 3063 3062 3061 3060 3060 3060 3061 3062 3063 3063 3064 3065 3066 3068 3068 3069 3070 3071 3071 3070 3072 3075 3077 3078 3080 3082 3082 3083 3085 3086 3087 3089 3090 3091 3093 3094 3096 3097 3098 3100
3077 3076 3074 3072 3071 3070 3070 3069 3069 3069 3069 3069 3069 3069 3069 3069 3069 3068 3068 3069 3069 3069 3069 3069 3069 3068 3068 3068 3067 3068 3068 3067 3067 3067 3067 3066 3065 3065 3064 3064 3064 3064 3063 3064 3064 3063 3063 3063 3061 3060 3059 3058 3058 3059 3060 3060 3061 3060 3061 3062 3064 3065 3065 3066 3067 3068 3067 3068 3070 3073 3073 3075 3078 3079 3079 3081 3083 3084 3085 3086 3087 3089 3090 3091 3093 3094 3095 3097
3077 3075 3073 3072 3071 3070 3069 3069 3069 3069 3069 3069 3068 3068 3068 3068 3068 3068 3067 3067 3067 3067 3068 3068 3067 3067 3067 3067 3067 3066 3066 3066 3065 3065 3065 3064 3063 3063 3062 3062 3062 3062 3062 3062 3062 3062 3062 3061 3060 3060 3059 3057 3057 3058 3058 3059 3059 3058 3057 3059 3061 3062 3063 3064 3065 3065 3064 3065 3068 3070 3070 3072 3074 3075 3075 3078 3080 3081 3082 3084 3084 3086 3087 3088 3089 3090 3092 3093
3077 3076 3074 3072 3070 3070 3069 3069 3069 3069 3069 3069 3068 3068 3068 3067 3067 3067 3066 3066 3066 3066 3066 3066 3066 3066 3066 3066 3066 3065 3065 3064 3064 3063 3063 3062 3061 3060 3060 3060 3060 3060 3060 3060 3061 3061 3061 3061 3060 3060 3059 3056 3056 3057 3057 3058 3059 3055 3053 3055 3058 3060 3060 3061 3063 3062 3062 3063 3066 3066 3065 3067 3069 3071 3072 3075 3077 3078 3079 3080 3081 3082 3083 3084 3085 3086 3087 3088